When you browse on this site, cookies collect data to enhance your experience and personalize the content and advertising you see.
Visit our Privacy Policy to learn more. By continuing to use the site, you agree to this use of cookies and data.
  • In Schweiz
  • Länderverzeichnis
  • Für 7 Tage
  • Wassertemperatur
  • Satellitenkarten
  • Wetterkarte
  • Widgets
  • user-avatar
    Anmelden

    Stündliche Wetter Zaborovka

    Heute, 20 Juni, Donnerstag

    Zeit Temperatur Niederschläge Wind Luftdruck Luftfeuchtigkeit
    00:00 +18°C° 0 mm 1 m/S 746 mmHg 79%
    01:00 +18°C° 0 mm 1 m/S 746 mmHg 78%
    02:00 +16°C° 0 mm 1 m/S 746 mmHg 78%
    03:00 +16°C° 0 mm 1 m/S 746 mmHg 75%
    04:00 +18°C° 0 mm 1 m/S 746 mmHg 76%
    05:00 +18°C° 0 mm 1 m/S 747 mmHg 77%
    06:00 +19°C° 0 mm 1 m/S 747 mmHg 78%
    07:00 +20°C° 0 mm 1 m/S 747 mmHg 74%
    08:00 +22°C° 0 mm 1 m/S 747 mmHg 69%
    09:00 +24°C° 0 mm 1 m/S 747 mmHg 65%
    10:00 +25°C° 0 mm 1 m/S 747 mmHg 61%
    11:00 +26°C° 0 mm 1 m/S 747 mmHg 57%
    12:00 +27°C° 0 mm 1 m/S 747 mmHg 53%
    13:00 +28°C° 0 mm 1 m/S 747 mmHg 51%
    14:00 +26°C° 0 mm 0 m/S 747 mmHg 49%
    15:00 +26°C° 0 mm 0 m/S 747 mmHg 47%
    16:00 +26°C° 0 mm 0 m/S 747 mmHg 51%
    17:00 +26°C° 0 mm 0 m/S 747 mmHg 56%
    18:00 +26°C° 0 mm 0 m/S 747 mmHg 60%
    19:00 +26°C° 0 mm 1 m/S 747 mmHg 63%
    20:00 +24°C° 0 mm 1 m/S 747 mmHg 65%
    21:00 +22°C° 0 mm 1 m/S 747 mmHg 68%
    22:00 +21°C° 0 mm 1 m/S 747 mmHg 70%
    23:00 +20°C° 0 mm 1 m/S 747 mmHg 72%

    Morgen, 21 Juni, Freitag

    Zeit Temperatur Niederschläge Wind Luftdruck Luftfeuchtigkeit
    00:00 +20°C° 0 mm 1 m/S 747 mmHg 74%
    01:00 +20°C° 0 mm 1 m/S 747 mmHg 75%
    02:00 +19°C° 0 mm 1 m/S 748 mmHg 76%
    03:00 +19°C° 0 mm 1 m/S 748 mmHg 77%
    04:00 +19°C° 0 mm 1 m/S 748 mmHg 78%
    05:00 +20°C° 0 mm 1 m/S 748 mmHg 78%
    06:00 +21°C° 0 mm 1 m/S 748 mmHg 79%
    07:00 +22°C° 0 mm 1 m/S 748 mmHg 75%
    08:00 +24°C° 0 mm 2 m/S 748 mmHg 71%
    09:00 +25°C° 0 mm 2 m/S 748 mmHg 67%
    10:00 +26°C° 0 mm 2 m/S 748 mmHg 63%
    11:00 +27°C° 0 mm 2 m/S 748 mmHg 59%
    12:00 +28°C° 0 mm 2 m/S 748 mmHg 55%
    13:00 +28°C° 0 mm 2 m/S 748 mmHg 57%
    14:00 +28°C° 0 mm 2 m/S 748 mmHg 59%
    15:00 +28°C° 0 mm 3 m/S 748 mmHg 60%
    16:00 +28°C° 0 mm 2 m/S 748 mmHg 63%
    17:00 +27°C° 0 mm 2 m/S 748 mmHg 66%
    18:00 +27°C° 0 mm 2 m/S 747 mmHg 68%
    19:00 +26°C° 0 mm 2 m/S 747 mmHg 71%
    20:00 +24°C° 0 mm 2 m/S 747 mmHg 73%
    21:00 +21°C° 0 mm 2 m/S 747 mmHg 76%
    22:00 +21°C° 0 mm 2 m/S 747 mmHg 76%
    23:00 +20°C° 0 mm 2 m/S 747 mmHg 76%

    übermorgen, 22 Juni, Samstag

    Zeit Temperatur Niederschläge Wind Luftdruck Luftfeuchtigkeit
    00:00 +20°C° 0 mm 2 m/S 748 mmHg 76%
    01:00 +19°C° 0 mm 2 m/S 748 mmHg 78%
    02:00 +19°C° 0 mm 2 m/S 748 mmHg 79%
    03:00 +19°C° 0 mm 2 m/S 748 mmHg 81%
    04:00 +19°C° 0 mm 2 m/S 748 mmHg 82%
    05:00 +19°C° 0 mm 2 m/S 748 mmHg 83%
    06:00 +20°C° 0 mm 2 m/S 748 mmHg 84%
    07:00 +21°C° 0 mm 3 m/S 748 mmHg 80%
    08:00 +24°C° 0 mm 3 m/S 748 mmHg 76%
    09:00 +26°C° 0 mm 3 m/S 748 mmHg 72%
    10:00 +26°C° 0.1 mm 4 m/S 748 mmHg 68%
    11:00 +27°C° 0.1 mm 4 m/S 748 mmHg 64%
    12:00 +28°C° 0.1 mm 4 m/S 748 mmHg 60%
    13:00 +28°C° 0 mm 5 m/S 748 mmHg 60%
    14:00 +29°C° 0 mm 5 m/S 748 mmHg 60%
    15:00 +29°C° 0 mm 5 m/S 748 mmHg 60%
    16:00 +28°C° 0 mm 4 m/S 747 mmHg 64%
    17:00 +28°C° 0 mm 3 m/S 747 mmHg 68%
    18:00 +28°C° 0 mm 3 m/S 747 mmHg 72%
    19:00 +26°C° 0 mm 2 m/S 747 mmHg 75%
    20:00 +25°C° 0 mm 2 m/S 747 mmHg 77%
    21:00 +23°C° 0 mm 2 m/S 747 mmHg 80%
    22:00 +22°C° 0 mm 3 m/S 747 mmHg 82%
    23:00 +21°C° 0 mm 3 m/S 747 mmHg 83%

    23 Juni, Sonntag

    Zeit Temperatur Niederschläge Wind Luftdruck Luftfeuchtigkeit
    00:00 +21°C° 0 mm 3 m/S 747 mmHg 85%
    01:00 +20°C° 0 mm 3 m/S 748 mmHg 86%
    02:00 +20°C° 0 mm 3 m/S 748 mmHg 87%
    03:00 +19°C° 0 mm 3 m/S 748 mmHg 88%
    04:00 +20°C° 0 mm 2 m/S 748 mmHg 88%
    05:00 +20°C° 0 mm 2 m/S 748 mmHg 87%
    06:00 +21°C° 0 mm 2 m/S 748 mmHg 87%
    07:00 +23°C° 0.1 mm 2 m/S 748 mmHg 82%
    08:00 +25°C° 0.1 mm 2 m/S 748 mmHg 77%
    09:00 +27°C° 0.1 mm 3 m/S 748 mmHg 72%
    10:00 +27°C° 0.2 mm 3 m/S 748 mmHg 69%
    11:00 +28°C° 0.2 mm 3 m/S 748 mmHg 65%
    12:00 +29°C° 0.2 mm 4 m/S 748 mmHg 61%
    13:00 +29°C° 0.2 mm 4 m/S 748 mmHg 61%
    14:00 +29°C° 0.2 mm 4 m/S 748 mmHg 62%
    15:00 +29°C° 0.2 mm 4 m/S 748 mmHg 62%
    16:00 +29°C° 0.2 mm 4 m/S 748 mmHg 66%
    17:00 +28°C° 0.2 mm 3 m/S 748 mmHg 69%
    18:00 +28°C° 0.2 mm 3 m/S 747 mmHg 72%
    19:00 +26°C° 0.1 mm 2 m/S 748 mmHg 76%
    20:00 +25°C° 0.1 mm 2 m/S 748 mmHg 79%
    21:00 +23°C° 0.1 mm 2 m/S 748 mmHg 82%
    22:00 +23°C° 0 mm 2 m/S 748 mmHg 85%
    23:00 +21°C° 0 mm 2 m/S 748 mmHg 87%

    24 Juni, Montag

    Zeit Temperatur Niederschläge Wind Luftdruck Luftfeuchtigkeit
    00:00 +20°C° 0 mm 2 m/S 748 mmHg 89%
    01:00 +20°C° 0 mm 2 m/S 748 mmHg 91%
    02:00 +20°C° 0 mm 2 m/S 748 mmHg 94%
    03:00 +19°C° 0 mm 2 m/S 748 mmHg 96%
    04:00 +19°C° 0 mm 3 m/S 749 mmHg 96%
    05:00 +19°C° 0 mm 3 m/S 749 mmHg 96%
    06:00 +20°C° 0 mm 3 m/S 749 mmHg 96%
    07:00 +20°C° 0 mm 4 m/S 749 mmHg 94%
    08:00 +20°C° 0 mm 4 m/S 749 mmHg 93%
    09:00 +21°C° 0 mm 4 m/S 749 mmHg 91%
    10:00 +22°C° 0 mm 4 m/S 749 mmHg 84%
    11:00 +23°C° 0 mm 5 m/S 750 mmHg 78%
    12:00 +25°C° 0 mm 5 m/S 750 mmHg 72%
    13:00 +25°C° 0 mm 5 m/S 750 mmHg 70%
    14:00 +26°C° 0 mm 5 m/S 750 mmHg 68%
    15:00 +26°C° 0 mm 5 m/S 750 mmHg 66%
    16:00 +25°C° 0 mm 5 m/S 750 mmHg 67%
    17:00 +25°C° 0 mm 5 m/S 750 mmHg 68%
    18:00 +23°C° 0 mm 4 m/S 750 mmHg 68%
    19:00 +22°C° 0 mm 4 m/S 750 mmHg 70%
    20:00 +20°C° 0 mm 4 m/S 750 mmHg 72%
    21:00 +19°C° 0 mm 4 m/S 750 mmHg 75%
    22:00 +18°C° 0 mm 4 m/S 750 mmHg 73%
    23:00 +18°C° 0 mm 4 m/S 750 mmHg 72%

    25 Juni, Dienstag

    Zeit Temperatur Niederschläge Wind Luftdruck Luftfeuchtigkeit
    00:00 +17°C° 0 mm 4 m/S 750 mmHg 71%
    01:00 +17°C° 0 mm 4 m/S 750 mmHg 69%
    02:00 +15°C° 0 mm 4 m/S 750 mmHg 66%
    03:00 +15°C° 0 mm 4 m/S 751 mmHg 64%
    04:00 +15°C° 0 mm 4 m/S 750 mmHg 68%
    05:00 +16°C° 0 mm 3 m/S 750 mmHg 72%
    06:00 +16°C° 0 mm 3 m/S 750 mmHg 77%
    07:00 +17°C° 0 mm 3 m/S 750 mmHg 75%
    08:00 +18°C° 0 mm 3 m/S 750 mmHg 74%
    09:00 +19°C° 0 mm 4 m/S 751 mmHg 73%
    10:00 +19°C° 0 mm 4 m/S 750 mmHg 70%
    11:00 +20°C° 0 mm 4 m/S 750 mmHg 66%
    12:00 +21°C° 0 mm 4 m/S 750 mmHg 63%
    13:00 +21°C° 0 mm 4 m/S 750 mmHg 61%
    14:00 +22°C° 0 mm 4 m/S 750 mmHg 59%
    15:00 +22°C° 0 mm 3 m/S 749 mmHg 57%
    16:00 +22°C° 0 mm 3 m/S 749 mmHg 60%
    17:00 +21°C° 0 mm 2 m/S 749 mmHg 63%
    18:00 +21°C° 0 mm 1 m/S 748 mmHg 66%
    19:00 +20°C° 0 mm 1 m/S 748 mmHg 69%
    20:00 +20°C° 0 mm 1 m/S 748 mmHg 71%
    21:00 +19°C° 0 mm 1 m/S 748 mmHg 73%
    22:00 +18°C° 0 mm 1 m/S 748 mmHg 75%
    23:00 +16°C° 0 mm 2 m/S 747 mmHg 77%
    Mehr zeigen